Weather reports worldwide

Advertisment
Angermünde, Germany (10291): temperature & dewpoint: 20.03.2019 08:00:00 - 26.03.2019 08:00:00 (CET)Angermünde, Germany (10291): temperature 5cm & temperature -5cm: 20.03.2019 08:00:00 - 26.03.2019 08:00:00 (CET)Angermünde, Germany (10291): temperature -20cm & temperature -100cm: 20.03.2019 08:00:00 - 26.03.2019 08:00:00 (CET)Angermünde, Germany (10291): wind speed & gusts: 20.03.2019 08:00:00 - 26.03.2019 08:00:00 (CET)Angermünde, Germany (10291): wind direction: 20.03.2019 08:00:00 - 26.03.2019 08:00:00 (CET)Angermünde, Germany (10291): reduced air pressure: 20.03.2019 08:00:00 - 26.03.2019 08:00:00 (CET)Angermünde, Germany (10291): visibility: 20.03.2019 08:00:00 - 26.03.2019 08:00:00 (CET)Angermünde, Germany (10291): sunshine duration: 20.03.2019 08:00:00 - 26.03.2019 08:00:00 (CET)Angermünde, Germany (10291): precipitation: 20.03.2019 08:00:00 - 26.03.2019 08:00:00 (CET)
Date & Time tt [°C] td [°C] tt 5cm [°C] tt -5cm [°C] tt -20cm [°C] tt -100cm [°C] ff [km/h] ff [kn] fx [km/h] fx [kn] dd ppp [hPa] vv [km] sd [min] rr [mm]
26.03.2019 08:00:00 3,3 0,0 3,2 2,7 4,4 6,7 28 15 50 27 WNW 1022,2 31 0 0,0
26.03.2019 07:00:00 2,4 0,9 2,0 1,9 4,5 6,7 25 13 39 21 W 1022,1 13 0 0,0
26.03.2019 06:00:00 1,9 0,5 0,7 1,8 4,7 6,7 16 8 26 14 W 1021,7 18 0 0,0
26.03.2019 05:00:00 1,9 0,5 0,7 1,9 4,8 6,7 18 10 27 14 WSW 1022,0 17 0 0,0
26.03.2019 04:00:00 1,4 0,4 0,2 2,0 5,0 6,7 13 7 23 12 W 1022,3 11 0 0,0
26.03.2019 03:00:00 1,3 0,3 0,2 2,1 5,2 6,7 16 9 22 12 W 1022,3 9 0 0,0
26.03.2019 02:00:00 1,5 0,3 0,1 2,3 5,5 6,7 14 8 19 10 W 1022,5 10 0 0,0
26.03.2019 01:00:00 1,3 0,0 -0,3 2,5 5,7 6,7 12 6 16 9 W 1022,7 12 0 0,0
26.03.2019 00:00:00 1,6 0,0 0,0 2,8 6,1 6,7 11 6 16 9 W 1022,1 15 0 0,0
25.03.2019 23:00:00 1,5 -0,1 -0,5 3,3 6,4 6,7 10 5 19 11 WNW 1021,7 17 0 0,0
25.03.2019 22:00:00 2,8 0,5 0,6 4,1 6,7 6,7 12 6 20 11 NNW 1021,2 28 0 0,0
25.03.2019 21:00:00 3,4 0,5 1,6 4,9 7,0 6,7 8 5 26 14 N 1020,2 45 0 0,0
25.03.2019 20:00:00 5,1 1,1 3,7 5,9 7,2 6,7 21 11 42 23 NNW 1019,2 70 0 0,0
25.03.2019 19:00:00 6,3 0,8 5,5 6,7 7,3 6,7 24 13 37 20 NNW 1017,4 70 0 0,0
25.03.2019 18:00:00 7,0 0,5 6,4 7,5 7,4 6,7 14 8 34 18 NNW 1016,1 70 13 0,0
25.03.2019 17:00:00 6,8 1,0 6,9 8,3 7,3 6,7 13 7 35 19 NNE 1014,9 70 12 0,0
25.03.2019 16:00:00 7,3 0,0 10,1 8,8 7,1 6,7 15 8 47 25 N 1014,0 55 35 0,0
25.03.2019 15:00:00 7,1 0,6 9,4 8,9 6,9 6,7 16 9 45 24 NNW 1013,4 70 19 0,0
25.03.2019 14:00:00 8,9 2,0 11,9 9,1 6,5 6,7 27 14 42 23 WNW 1012,6 32 54 0,0
25.03.2019 13:00:00 7,5 1,3 8,7 8,3 6,1 6,7 24 13 41 22 WNW 1012,3 67 33 0,0
25.03.2019 12:00:00 7,3 2,0 10,4 7,4 5,7 6,7 26 14 42 23 WNW 1012,0 34 34 0,0
25.03.2019 11:00:00 5,4 2,5 7,7 6,2 5,5 6,6 21 11 34 18 W 1011,6 40 28 0,0
25.03.2019 10:00:00 4,1 2,2 4,7 4,8 5,4 6,6 19 10 28 15 W 1011,4 19 0 0,0
25.03.2019 09:00:00 2,5 1,1 2,9 3,8 5,4 6,6 18 10 30 16 WSW 1011,2 14 0 0,6
25.03.2019 08:00:00 2,1 0,7 2,0 3,4 5,5 6,6 15 8 31 17 SW 1010,9 8 0 1,3
25.03.2019 07:00:00 2,8 0,1 1,7 3,3 5,6 6,6 18 10 29 16 WSW 1011,3 5 0 0,2
25.03.2019 06:00:00 3,2 -0,8 2,6 2,9 5,8 6,6 13 7 25 13 SW 1011,7 35 0 0,0
25.03.2019 05:00:00 2,4 -1,0 0,9 3,1 6,0 6,6 9 5 22 12 SW 1012,6 38 0 0,0
25.03.2019 04:00:00 2,5 -1,0 1,4 3,4 6,1 6,6 11 6 14 8 SSW 1013,9 42 0 0,0
25.03.2019 03:00:00 2,3 -0,9 1,2 3,7 6,3 6,6 9 5 14 8 S 1014,9 41 0 0,0
25.03.2019 02:00:00 3,8 -1,1 3,0 3,6 6,5 6,6 9 5 18 10 SW 1016,2 48 0 0,0
25.03.2019 01:00:00 2,8 -1,3 1,0 3,7 6,8 6,6 11 6 16 9 W 1017,2 48 0 0,0
25.03.2019 00:00:00 2,0 0,2 0,5 3,8 7,2 6,6 9 5 11 6 WSW 1018,2 39 0 0,0
24.03.2019 23:00:00 2,5 -1,0 -0,7 4,2 7,6 6,6 10 5 13 7 W 1018,9 52 0 0,0
24.03.2019 22:00:00 2,4 -0,5 -0,4 4,9 8,0 6,5 10 5 12 6 W 1019,5 49 0 0,0
24.03.2019 21:00:00 3,1 -0,4 -0,2 5,9 8,4 6,5 8 5 10 5 W 1020,1 49 0 0,0
24.03.2019 20:00:00 4,6 0,6 1,1 7,1 8,8 6,5 4 2 6 4 W 1020,7 44 0 0,0
24.03.2019 19:00:00 6,7 1,0 3,0 8,5 9,0 6,5 2 1 7 4 W 1021,0 38 0 0,0
24.03.2019 18:00:00 8,2 0,6 6,8 9,6 9,1 6,5 5 3 15 8 NNW 1021,5 49 35 0,0
24.03.2019 17:00:00 8,9 -0,1 9,6 10,6 9,2 6,5 9 5 16 9 N 1022,0 57 1 0,0
24.03.2019 16:00:00 9,6 1,0 10,3 11,5 9,1 6,5 7 4 16 9 N 1022,5 52 1 0,0
24.03.2019 15:00:00 10,1 -1,4 12,4 12,0 8,8 6,5 8 4 18 10 NNE 1023,1 70 0 0,0
24.03.2019 14:00:00 10,4 0,5 12,3 12,6 8,4 6,5 8 4 16 9 N 1023,7 70 7 0,0
24.03.2019 13:00:00 10,2 -0,7 13,8 13,0 7,8 6,5 7 4 26 14 N 1025,0 63 35 0,0
24.03.2019 12:00:00 9,4 -1,0 13,7 11,6 7,1 6,5 6 3 16 9 SSW 1025,7 42 60 0,0
24.03.2019 11:00:00 8,5 -0,5 13,5 9,8 6,6 6,4 6 4 14 8 N 1026,8 44 60 0,0
24.03.2019 10:00:00 7,4 0,1 11,5 7,8 6,2 6,4 5 3 10 6 NNW 1027,5 43 58 0,0
24.03.2019 09:00:00 5,9 1,0 7,3 5,8 6,1 6,4 5 3 10 5 WNW 1028,0 35 27 0,0
24.03.2019 08:00:00 4,8 1,8 4,8 4,7 6,2 6,4 8 4 15 8 NNW 1028,2 33 0 0,0
24.03.2019 07:00:00 4,0 1,5 3,1 4,2 6,3 6,4 8 4 11 6 NNW 1028,4 30 0 0,0
24.03.2019 06:00:00 3,4 1,6 2,0 4,1 6,4 6,4 10 5 11 6 NW 1028,5 27 0 0,0
24.03.2019 05:00:00 3,2 1,5 1,9 4,1 6,6 6,4 8 5 10 5 WNW 1028,7 17 0 0,0
24.03.2019 04:00:00 3,2 1,2 2,1 4,1 6,9 6,3 8 4 10 5 W 1028,8 19 0 0,0
24.03.2019 03:00:00 3,9 1,5 0,8 4,3 7,1 6,3 5 3 12 6 W 1028,8 24 0 0,0
24.03.2019 02:00:00 3,9 1,6 2,0 4,5 7,4 6,3 11 6 18 10 NW 1029,0 22 0 0,0
24.03.2019 01:00:00 4,3 1,7 1,8 4,9 7,8 6,3 14 7 18 10 NW 1029,0 19 0 0,0
24.03.2019 00:00:00 5,2 2,5 2,5 5,4 8,1 6,3 11 6 15 8 WNW 1029,0 15 0 0,0
23.03.2019 23:00:00 5,2 3,1 2,0 6,1 8,5 6,3 6 3 13 7 WNW 1029,0 11 0 0,0
23.03.2019 22:00:00 6,2 3,4 3,2 6,9 8,9 6,3 8 4 11 6 WNW 1028,9 10 0 0,0
23.03.2019 21:00:00 7,5 4,6 4,8 8,0 9,2 6,3 9 5 22 12 NW 1028,9 10 0 0,0
23.03.2019 20:00:00 9,0 5,3 7,2 9,0 9,4 6,2 16 9 23 13 NW 1028,3 13 0 0,0
23.03.2019 19:00:00 10,6 5,1 9,7 10,1 9,6 6,2 16 9 26 14 NW 1027,6 25 0 0,0
23.03.2019 18:00:00 11,5 6,1 10,9 10,9 9,7 6,2 13 7 28 15 NW 1027,3 23 0 0,0
23.03.2019 17:00:00 12,1 5,9 11,9 11,8 9,7 6,2 17 9 31 17 NW 1027,0 20 6 0,0
23.03.2019 16:00:00 13,1 5,8 15,7 12,5 9,5 6,2 17 9 29 16 NNW 1026,7 14 32 0,0
23.03.2019 15:00:00 12,7 5,9 15,5 12,9 9,3 6,2 20 11 29 16 NNW 1026,5 8 56 0,0
23.03.2019 14:00:00 12,0 6,1 14,4 12,5 9,0 6,2 21 11 33 18 NW 1026,7 7 21 0,0
23.03.2019 13:00:00 11,0 7,5 12,1 13,1 8,6 6,2 21 11 31 17 NW 1026,4 4,1 31 0,0
23.03.2019 12:00:00 11,6 7,8 16,3 12,8 8,0 6,2 13 7 23 12 NNW 1025,8 4,9 60 0,0
23.03.2019 11:00:00 11,4 7,0 14,5 11,5 7,5 6,2 14 7 21 11 NW 1025,6 6 59 0,0
23.03.2019 10:00:00 10,3 7,0 13,7 9,7 7,2 6,1 6 3 16 9 SW 1025,2 6 60 0,0
23.03.2019 09:00:00 7,6 7,0 9,4 7,9 7,0 6,1 4 2 18 10 WSW 1025,5 3,4 9 0,0
23.03.2019 08:00:00 5,9 5,6 6,6 7,0 7,0 6,1 9 5 15 8 S 1025,4 0,2 0 0,0
23.03.2019 07:00:00 5,6 5,4 5,9 6,6 7,1 6,1 7 4 16 9 S 1025,6 0,1 0 0,0
23.03.2019 06:00:00 5,8 5,5 5,9 6,7 7,1 6,1 8 4 19 10 SSE 1025,8 0,1 0 0,0
23.03.2019 05:00:00 6,4 6,0 6,4 6,8 7,2 6,1 10 6 20 11 S 1026,3 0,5 0 0,0
23.03.2019 04:00:00 6,7 6,3 6,7 6,8 7,2 6,1 12 6 26 14 SSE 1026,3 0,8 0 0,0
23.03.2019 03:00:00 7,0 6,5 6,8 6,8 7,3 6,0 16 8 23 13 SSE 1026,8 1,1 0 0,0
23.03.2019 02:00:00 7,0 6,4 6,8 6,6 7,4 6,0 15 8 26 14 S 1027,3 0,7 0 0,0
23.03.2019 01:00:00 6,9 6,0 6,2 6,2 7,6 6,0 15 8 26 14 SSE 1028,0 2,7 0 0,0
23.03.2019 00:00:00 7,4 5,9 6,0 6,5 7,8 6,0 13 7 18 10 SSE 1028,6 5 0 0,0
22.03.2019 23:00:00 7,6 6,1 5,6 7,1 8,0 6,0 9 5 15 8 S 1029,4 5 0 0,0
22.03.2019 22:00:00 8,6 6,7 6,9 7,9 8,2 6,0 9 5 16 9 SSE 1029,9 6 0 0,0
22.03.2019 21:00:00 9,3 6,7 7,8 8,6 8,3 6,0 10 5 18 10 SSE 1030,1 7 0 0,0
22.03.2019 20:00:00 9,8 6,7 9,4 8,9 8,4 6,0 10 6 20 11 SSE 1030,8 5 0 0,0
22.03.2019 19:00:00 9,8 6,9 9,5 9,2 8,5 6,0 11 6 19 11 SSE 1030,9 5 0 0,0
22.03.2019 18:00:00 9,9 6,9 9,7 9,7 8,5 5,9 12 7 21 11 SSE 1031,1 7 0 0,0
22.03.2019 17:00:00 10,1 7,0 10,2 10,2 8,5 5,9 10 5 16 9 ESE 1031,4 6 0 0,0
22.03.2019 16:00:00 10,4 6,9 10,8 10,9 8,4 5,9 9 5 18 10 SE 1031,9 12 0 0,0
22.03.2019 15:00:00 10,6 6,8 11,5 11,2 8,1 5,9 5 3 14 8 SSE 1032,3 11 0 0,0
22.03.2019 14:00:00 10,7 6,9 11,9 11,0 7,9 5,9 7 4 13 7 S 1032,8 10 0 0,0
22.03.2019 13:00:00 10,5 6,6 11,8 10,5 7,7 5,9 9 5 15 8 S 1033,3 26 0 0,0
22.03.2019 12:00:00 10,1 6,7 11,2 9,7 7,5 5,9 9 5 15 8 S 1033,9 29 0 0,0
22.03.2019 11:00:00 10,0 7,0 10,7 9,2 7,3 5,9 4 2 11 6 SW 1034,2 23 0 0,0
22.03.2019 10:00:00 9,6 7,0 10,1 8,6 7,2 5,9 2 1 6 3 ESE 1034,2 16 0 0,0
22.03.2019 09:00:00 9,2 7,3 9,6 8,1 7,1 5,8 4 2 5 3 W 1034,2 13 0 0,0
22.03.2019 08:00:00 8,7 7,3 8,5 7,6 7,1 5,8 3 2 5 3 WSW 1033,9 8 0 0,0
22.03.2019 07:00:00 8,7 7,2 8,1 7,5 7,1 5,8 2 1 10 5 NW 1033,7 5 0 0,0
22.03.2019 06:00:00 8,9 6,9 8,4 7,5 7,1 5,8 5 3 14 8 N 1033,4 9 0 0,0
22.03.2019 05:00:00 9,2 6,9 8,7 7,6 7,1 5,8 8 5 14 7 NNW 1033,1 8 0 0,0
22.03.2019 04:00:00 9,2 7,0 8,7 7,5 7,1 5,8 8 4 14 7 W 1032,5 8 0 0,0
22.03.2019 03:00:00 9,3 6,9 8,8 7,4 7,2 5,8 10 5 16 9 W 1032,2 9 0 0,0
22.03.2019 02:00:00 9,2 6,5 8,3 7,5 7,2 5,8 8 4 18 10 W 1032,4 9 0 0,0
22.03.2019 01:00:00 9,9 6,8 9,2 7,7 7,2 5,8 8 4 18 10 W 1032,5 9 0 0,0
22.03.2019 00:00:00 10,1 6,9 9,5 7,6 7,2 5,8 15 8 22 12 WNW 1032,7 10 0 0,0
21.03.2019 23:00:00 9,8 7,2 9,2 7,5 7,3 5,8 10 6 16 9 WNW 1033,0 12 0 0,0
21.03.2019 22:00:00 9,3 6,9 8,1 7,5 7,4 5,8 2 1 8 4 SSW 1032,8 9 0 0,0
21.03.2019 21:00:00 9,7 7,1 8,7 7,4 7,6 5,7 3 1 15 8 W 1032,7 11 0 0,0
21.03.2019 20:00:00 9,0 6,2 6,9 7,6 7,7 5,7 10 6 17 9 WSW 1032,3 9 0 0,0
21.03.2019 19:00:00 10,7 6,8 8,6 8,5 7,8 5,7 10 5 18 10 SW 1031,7 13 0 0,0
21.03.2019 18:00:00 12,1 7,1 10,8 9,6 7,8 5,7 10 5 26 14 SW 1031,7 16 44 0,0
21.03.2019 17:00:00 12,8 7,1 13,2 10,2 7,7 5,7 16 9 32 17 WSW 1031,7 15 54 0,0
21.03.2019 16:00:00 12,5 7,3 13,4 10,0 7,5 5,7 16 8 31 17 WSW 1031,8 14 4 0,0
21.03.2019 15:00:00 12,0 6,9 12,3 9,8 7,4 5,7 17 9 32 18 WSW 1032,6 12 0 0,0
21.03.2019 14:00:00 12,1 7,1 12,5 9,9 7,2 5,7 17 9 28 15 W 1032,9 15 0 0,0
21.03.2019 13:00:00 12,0 6,9 12,8 9,6 7,0 5,7 14 8 30 16 WSW 1033,2 17 0 0,0
21.03.2019 12:00:00 11,4 6,8 12,1 9,2 6,8 5,7 18 10 26 14 W 1033,6 15 0 0,0
21.03.2019 11:00:00 10,7 6,5 10,9 8,8 6,6 5,7 16 9 26 14 WSW 1033,7 14 0 0,0
21.03.2019 10:00:00 10,5 6,0 11,0 8,5 6,4 5,7 16 9 22 12 W 1033,5 15 0 0,0
21.03.2019 09:00:00 10,2 6,1 11,0 7,7 6,3 5,7 13 7 20 11 WSW 1033,6 12 0 0,0
21.03.2019 08:00:00 9,0 6,5 8,9 7,0 6,2 5,7 9 5 13 7 WSW 1033,4 6 0 0,0
21.03.2019 07:00:00 8,6 6,6 8,1 6,6 6,2 5,7 8 5 17 9 WSW 1032,8 4,5 0 0,0
21.03.2019 06:00:00 8,5 6,6 7,8 6,8 6,2 5,7 11 6 17 9 WSW 1032,7 4,6 0 0,0
21.03.2019 05:00:00 8,6 6,6 8,1 6,8 6,2 5,7 12 7 20 11 WSW 1032,6 5 0 0,0
21.03.2019 04:00:00 8,6 6,5 8,2 6,8 6,2 5,7 14 8 21 12 W 1032,6 6 0 0,0
21.03.2019 03:00:00 8,7 6,4 8,1 6,8 6,2 5,7 13 7 19 10 WSW 1032,7 8 0 0,0
21.03.2019 02:00:00 8,7 6,4 8,2 6,9 6,2 5,7 11 6 23 12 W 1033,0 8 0 0,0
21.03.2019 01:00:00 8,8 6,3 8,4 6,9 6,2 5,7 16 8 24 13 WSW 1032,8 9 0 0,0
21.03.2019 00:00:00 9,1 6,1 8,6 6,9 6,2 5,7 10 6 20 11 WSW 1032,7 12 0 0,0
20.03.2019 23:00:00 9,1 6,2 8,3 7,0 6,2 5,7 13 7 29 16 W 1033,0 11 0 0,0
20.03.2019 22:00:00 9,9 5,1 9,3 7,0 6,2 5,7 20 11 37 20 W 1032,5 18 0 0,0
20.03.2019 21:00:00 10,2 4,7 9,5 7,0 6,3 5,7 20 11 35 19 W 1031,7 23 0 0,0
20.03.2019 20:00:00 10,7 4,1 9,8 7,1 6,3 5,7 21 11 40 22 WSW 1031,3 25 0 0,0
20.03.2019 19:00:00 11,1 3,6 10,3 7,3 6,3 5,7 20 11 34 18 WSW 1031,4 33 0 0,0
20.03.2019 18:00:00 11,5 2,2 10,6 7,8 6,3 5,7 16 9 29 16 WSW 1030,9 45 0 0,0
20.03.2019 17:00:00 11,7 2,4 11,2 8,4 6,2 5,7 21 12 29 16 WSW 1030,8 39 0 0,0
20.03.2019 16:00:00 11,7 2,0 11,4 8,6 6,0 5,7 17 9 36 20 WSW 1030,9 37 0 0,0
20.03.2019 15:00:00 11,9 2,2 12,7 9,3 5,6 5,7 25 13 39 21 WSW 1031,2 18 40 0,0
20.03.2019 14:00:00 11,6 1,9 12,4 9,5 5,1 5,7 17 9 35 19 SW 1031,4 27 36 0,0
20.03.2019 13:00:00 11,0 1,4 12,5 8,9 4,4 5,7 20 11 35 19 WSW 1032,1 33 56 0,0
20.03.2019 12:00:00 10,8 0,9 13,6 7,8 3,8 5,7 18 10 30 16 SW 1032,1 34 60 0,0
20.03.2019 11:00:00 9,0 0,5 11,3 5,4 3,3 5,7 19 10 27 15 WSW 1032,6 64 60 0,0
20.03.2019 10:00:00 7,5 -0,3 9,6 2,0 3,2 5,7 16 9 29 15 SW 1032,4 42 60 0,0
20.03.2019 09:00:00 4,3 -0,5 4,6 0,9 3,3 5,7 9 5 14 8 SSW 1032,4 32 60 0,0
20.03.2019 08:00:00 0,8 -1,9 1,1 0,9 3,4 5,7 8 4 10 5 S 1032,5 20 60 0,0

tt = temperature
td = dewpoint
tt 5cm = temperature 5cm
tt -5cm = temperature -5cm
tt -20cm = temperature -20cm
tt -100cm = temperature -100cm
ff = wind speed
fx = gusts
dd = wind direction
ppp = reduced air pressure
vv = visibility
sd = sunshine duration
rr = precipitation

Next stations